Regional Weather Roundup
Issued by NWS

Home | Current Version | Previous Version | Graphics & Text | Print | Product List | Glossary On
Versions: 1 2 3 4 5 6 7 8 9 10 11 12 13 14 15 16 17 18 19 20 21 22 23 24 25 26 27 28 29 30 31 32 33 34 35 36 37 38 39 40 41 42 43 44 45 46 47 48 49 50
000
ASUS45 KSLC 182010
RWRUT

UTAH REGIONAL WEATHER ROUNDUP
NATIONAL WEATHER SERVICE SALT LAKE CITY UT
200 PM MDT SAT APR 18 2015

UTZ001>011-023>025-182100-

NORTHERN UTAH

CITY           SKY/WX    TMP DP  RH WIND       PRES   REMARKS
BRIGHAM CITY   SUNNY     65  29  25 CALM      30.00F
HILL AFB       SUNNY     61  35  37 VRB5      30.02F
LOGAN          SUNNY     63  32  31 N8        30.01F
OGDEN          SUNNY     64  32  30 N10       30.01F
PROVO AIRPORT  MOSUNNY   61  36  39 VRB6      30.02F
SALT LAKE CITY MOSUNNY   62  35  36 W8        30.01F
VERNAL         MOSUNNY   64  20  18 N21G29    29.93F
WENDOVER       SUNNY     72  25  17 NE9G16    30.02F
HEBER CITY     MOSUNNY   64  23  20 NW12G22   29.99S
WEST JORDAN    SUNNY     61  34  36 NW14G21   30.03F

$$

UTZ012>022-026-027-182100-

SOUTHERN/CENTRAL UTAH

CITY           SKY/WX    TMP DP  RH WIND       PRES   REMARKS
BLANDING       SUNNY     52  40  62 CALM      30.07F
BRYCE CANYON   MOSUNNY   57  23  26 NW17G24   30.10S
CEDAR CITY     SUNNY     63  20  19 CALM      30.05F
DELTA          SUNNY     66  20  17 NW9G22    30.02F
HANKSVILLE     SUNNY     64  37  36 S5        29.96F
MILFORD        SUNNY     67  21  17 N9G20     30.03F
MOAB/CYNLANDS  SUNNY     57  42  57 VRB3      29.94F
PRICE          PTSUNNY   68  24  19 NW16G32   29.93F
ST GEORGE      CLEAR     75  27  16 W8        29.96F

$$

REGIONAL REPORTS     COLORADO/ARIZONA

CITY           SKY/WX    TMP DP  RH WIND       PRES   REMARKS
CRAIG, CO      SNOW      34  32  92 CALM      29.98S VSB 1/2
GRAND JUNCTION CLOUDY    42  37  82 CALM      30.00F
RIFLE          SNOW      34  32  92 CALM      30.02R VSB 1/2
MONTROSE       LGT RAIN  40  36  86 SE6       30.02S
CORTEZ         CLOUDY    48  37  65 W12       30.02F
PAGE, AZ       SUNNY     69  28  21 CALM      29.97F
GRAND CANYON   SUNNY     63  16  16 W12G18    30.08F
KINGMAN        SUNNY     77  15   9 MISG      30.00F
FLAGSTAFF      MOSUNNY   58  15  18 W12G21    30.09F

$$

REGIONAL REPORTS    NEVADA/IDAHO/WYOMING

CITY           SKY/WX    TMP DP  RH WIND       PRES   REMARKS
LAS VEGAS, NV  SUNNY     81  17   9 S7        29.90F
ELY            SUNNY     64  17  16 N15G29    30.10F
ELKO           SUNNY     70  15  12 NE17      30.09F
POCATELLO, ID  MOSUNNY   65  27  23 VRB3      30.04F
BURLEY         SUNNY     65  29  25 NW8G17    30.05F
EVANSTON, WY   SUNNY     59  24  26 N22G29    30.03F
ROCK SPRINGS   MOSUNNY   57  27  31 NE23G30   29.96F
KEMMERER       SUNNY     59  18  20 NW21G29   30.01S

$$



USA.gov is the U.S. government's official web portal to all federal, state and local government web resources and services.